sat.trackr.live / text

‹ back to catalog

ZHUQUE-2E DEB

NORAD 69631 · 2026-128F

DEBRIS UNKNOWN UNKNOWN

§ Identity

Operator
Country
PRC
Launch date
2026-06-09
Launch site
JSC
Launch vehicle
Mass (kg)
RCS (m²)

External: N2YO · Heavens-Above · Gunter

§ Orbital elements

Epoch: 2026-07-08T15:11:11.762592Z

Period
91.85 min
Inclination
54.5236°
Eccentricity
0.0061129
Mean motion
15.67836924 rev/d
Perigee alt
323.9 km
Apogee alt
406.3 km
Semi-major
6,743.2 km
B*
1.6940e-3
RAAN
202.7856°
Arg perigee
23.2350°
Mean anomaly
337.1427°
Rev number
453

§ Raw data

ZHUQUE-2E DEB1 69631U 26128F   26189.63277503  .00215091  00000+0  16940-2 0  99922 69631  54.5236 202.7856 0061129  23.2350 337.1427 15.67836924  4536

JSON: /api/v1/satellites/69631 · /tle

For live sub-satellite position, see the globe view (requires WebGL).

§ Visibility from observer

Set your observer location to see the next 7 days of passes ≥ 10°. The values pass through the URL so the page stays shareable.

No JS? Fill the form by hand. The geolocation button needs JavaScript.